Temp
17 17 18 19 19 19 19 19 20 20 21 21 21 21 22 22 22 19 18 26 26 26 26 25 25 24 24 23 23 21 20 21 26 25 28 25 27 26 25 26 25 27 24 23 20
17 18 18 18 19 19 19 20 20 20 20 20 21 21 21 21 18 17 27 26 25 26 26 25 23 23 21 24 22 21 19 22 24 25 27 28 27 26 26 26 24 25 24 21 19
18 18 18 18 19 19 20 20 20 20 20 20 20 21 21 20 18 26 27 27 26 26 26 26 25 24 24 24 24 22 22 23 26 25 27 28 28 25 26 26 26 24 22 21 20
17 17 18 18 19 20 20 20 20 20 21 20 20 21 21 18 26 27 27 26 26 25 25 25 24 23 23 25 24 26 25 25 26 26 24 27 26 25 25 28 26 24 22 21 20
16 17 18 19 19 20 20 20 21 21 21 20 20 20 19 21 24 27 27 26 25 25 25 24 25 23 25 24 25 25 26 26 25 24 24 26 24 25 25 26 24 23 22 21 20
17 18 18 19 20 20 21 21 21 21 20 20 21 19 18 25 27 27 26 26 26 25 25 24 25 23 25 25 25 24 25 25 24 26 26 25 25 27 26 25 24 23 22 21 21
17 18 18 19 20 21 21 21 21 20 21 20 19 18 19 25 27 27 26 26 26 27 24 26 26 26 24 26 26 26 26 24 26 28 28 25 26 24 25 24 23 24 22 22 22
17 18 19 20 20 21 20 21 21 19 20 20 19 18 21 27 26 26 26 27 27 27 27 28 27 26 26 26 23 25 23 24 27 26 28 27 27 26 24 23 23 23 24 23 22
18 18 19 20 21 21 22 21 20 18 19 19 18 18 25 27 26 28 27 28 28 28 27 27 26 23 23 23 21 20 25 25 25 27 27 28 27 25 22 24 23 23 24 23 21
18 18 19 20 21 22 20 19 18 18 17 17 17 20 25 27 28 28 29 28 28 27 26 25 19 21 18 20 23 26 25 24 25 26 24 21 20 20 21 22 22 22 23 23 23
17 19 20 21 22 22 19 19 18 19 17 24 24 24 24 27 29 29 29 28 27 24 25 23 22 23 24 23 24 25 25 24 23 25 22 21 22 20 21 22 21 21 21 21 22
18 19 20 21 23 23 22 20 22 23 21 21 22 22 24 26 26 28 29 28 27 25 25 22 24 25 24 24 24 24 24 24 25 26 22 23 22 21 22 23 23 22 21 22 21
18 19 21 21 23 22 22 23 23 23 20 22 23 24 26 26 27 26 27 27 27 26 25 24 26 26 25 25 25 24 26 26 27 26 23 24 22 21 23 23 22 21 21 21 21
18 20 21 21 21 21 23 24 25 24 19 25 26 27 27 26 28 27 28 27 27 27 25 25 25 26 26 28 25 27 25 27 27 25 24 22 21 22 21 21 22 22 21 20 21
18 20 21 22 21 21 24 24 25 24 22 27 27 28 27 27 28 28 28 28 27 27 26 26 26 26 27 29 26 28 26 26 26 23 24 23 20 22 20 22 22 21 21 20 19
19 20 21 21 20 24 24 25 24 20 24 27 28 27 27 28 28 28 28 28 27 27 26 26 26 27 28 28 27 26 26 21 19 19 21 22 21 21 21 23 21 21 21 20 18
19 20 21 20 21 24 24 21 19 20 25 27 27 27 27 27 28 28 27 26 24 26 25 25 26 26 27 26 26 23 21 20 22 20 22 21 21 21 23 22 22 20 20 18 17
20 21 22 22 23 23 24 19 22 24 24 26 27 26 27 26 27 27 25 25 25 24 21 23 24 26 26 27 26 24 22 20 24 21 21 21 22 22 22 23 22 20 19 19 17
20 21 20 21 23 22 18 18 20 22 25 25 26 26 25 26 27 26 25 23 25 23 24 23 25 26 26 25 25 25 22 22 19 19 20 20 22 22 23 22 21 21 20 18 17
17 18 20 21 22 22 17 18 20 21 24 26 25 25 24 24 26 25 25 24 26 23 23 24 25 25 25 26 23 24 22 22 18 22 23 20 21 21 22 21 21 21 20 18 17
16 17 20 21 21 16 18 17 20 22 24 25 24 24 24 24 24 23 24 24 24 24 22 22 22 24 24 22 22 21 21 18 17 18 19 20 20 19 21 21 21 20 20 19 17
12 18 20 21 17 12 17 18 21 24 24 26 24 25 25 24 24 24 24 24 22 24 23 21 18 21 23 21 20 22 21 18 18 21 16 17 18 21 20 20 20 20 20 19 17
10 10 20 21 18 17 18 21 22 23 24 25 24 24 23 23 23 23 23 22 20 21 23 21 19 19 21 21 22 21 21 18 15 15 17 18 19 21 21 20 19 19 19 18 17
10 15 14 12 13 17 19 20 21 22 23 23 23 23 22 22 18 22 22 21 21 20 19 18 16 19 19 21 20 21 21 20 18 16 17 17 20 20 21 22 19 17 17 17 17
8 12 12 15 15 16 17 18 20 20 20 19 21 21 22 21 20 21 20 21 20 18 18 18 20 19 19 20 20 20 20 19 19 18 19 19 17 19 19 20 18 17 17 17 17
11 11 10 11 12 16 14 17 19 18 18 21 21 19 19 20 20 19 20 19 20 19 18 15 18 18 20 20 19 19 19 19 18 18 17 17 18 19 17 17 17 17 17 16 16
10 10 10 10 13 15 14 17 18 17 20 18 19 18 19 18 18 18 17 16 18 19 17 17 15 15 17 18 18 17 18 19 19 19 19 18 18 19 17 16 16 16 16 16 16
Height
808 805 802 800 798 795 793 790 786 784 783 781 779 777 775 774 772 769 766 764 764 765 768 768 771 775 778 780 780 784 817 827 806 805 793 783 781 776 774 775 776 773 778 776 783
807 804 802 799 796 793 790 787 784 782 780 779 778 776 774 772 769 766 762 763 765 765 767 768 771 776 785 784 785 795 819 813 791 789 789 781 780 779 779 775 778 774 773 778 782
805 803 800 797 794 791 788 785 782 780 779 777 776 775 773 771 771 761 761 762 765 766 767 768 769 774 785 785 787 795 807 793 783 783 780 781 777 775 776 781 765 774 773 777 782
804 803 799 795 792 789 785 782 780 778 777 776 775 773 772 772 783 761 762 764 765 767 769 768 771 781 790 791 786 794 785 784 779 775 782 780 771 776 771 761 757 759 764 771 778
806 800 797 793 789 786 782 779 778 777 775 774 774 773 772 773 766 761 762 764 765 767 768 769 773 779 787 787 786 790 783 778 775 776 778 772 773 772 768 756 758 760 768 770 774
801 798 795 791 787 783 780 778 777 775 773 773 773 773 773 774 760 761 762 764 765 766 767 768 771 772 779 783 786 782 781 778 773 769 769 774 773 767 755 757 761 762 766 770 774
801 797 793 789 785 781 778 776 775 773 773 772 772 773 772 767 761 761 763 764 765 765 765 767 767 770 776 781 775 778 786 780 771 765 766 767 776 776 755 757 762 763 764 769 774
799 796 791 788 783 779 776 774 773 772 772 771 772 773 771 759 760 761 762 763 763 765 765 765 766 769 773 773 783 788 794 804 773 770 763 767 788 759 754 759 764 764 763 767 770
799 794 789 785 781 777 774 772 772 772 772 772 773 774 768 759 760 758 760 762 761 763 763 764 766 777 779 794 808 808 810 801 792 768 772 774 780 766 761 757 763 764 762 765 767
798 793 789 784 779 775 773 772 771 772 773 773 773 776 761 762 757 758 758 761 762 762 766 769 781 791 802 806 823 805 806 804 802 778 784 795 797 782 770 772 778 775 768 763 763
797 791 786 781 777 774 773 773 775 775 773 768 768 768 764 759 757 757 759 761 763 770 785 780 797 801 790 792 791 794 802 806 793 780 793 799 790 788 778 777 780 780 779 773 774
795 789 784 780 775 773 772 773 775 777 780 764 765 765 761 760 764 757 759 768 771 787 781 793 799 780 779 784 790 794 800 801 789 779 789 790 795 788 780 779 778 780 779 773 772
792 786 782 778 774 774 775 775 773 772 783 769 762 761 757 759 763 762 760 766 774 783 785 796 782 773 778 784 790 795 794 793 791 784 790 793 805 800 783 780 776 773 769 764 767
792 786 781 778 777 776 775 772 770 770 801 775 764 756 755 755 764 754 757 764 773 782 784 787 773 775 777 778 786 792 782 780 783 796 813 801 836 808 797 791 780 775 770 766 765
791 785 781 779 777 776 775 771 769 770 821 767 761 750 754 763 759 760 757 760 778 777 782 788 780 781 781 777 778 782 776 781 787 804 806 812 832 813 803 799 786 778 770 764 763
787 782 779 778 776 774 772 769 770 806 813 772 758 764 766 762 761 760 761 758 764 776 779 781 770 773 773 769 770 773 782 800 811 819 837 817 826 825 815 799 792 780 778 775 772
783 780 777 776 774 773 771 770 809 820 776 777 771 766 768 772 768 767 773 779 793 799 801 790 782 774 769 780 775 784 806 840 836 844 839 819 826 818 796 790 788 788 785 786 780
779 776 773 773 771 773 770 791 811 792 788 768 767 770 777 773 771 772 781 790 782 792 812 813 818 786 774 780 788 796 804 836 837 850 839 820 829 815 792 786 784 782 782 786 784
776 772 771 770 769 773 781 814 807 794 778 777 772 780 784 777 775 776 783 792 782 785 804 811 805 781 778 780 783 794 816 805 833 838 842 836 816 797 786 789 789 785 782 785 786
777 773 772 771 772 771 794 804 794 782 773 771 786 781 791 788 783 785 787 783 781 781 781 795 809 789 784 779 786 791 800 819 832 836 835 837 829 823 801 796 791 788 785 787 785
779 777 773 771 772 782 803 803 788 775 771 774 780 783 785 787 787 792 792 783 779 783 783 793 805 804 792 807 810 811 814 826 831 838 848 850 836 804 797 792 792 788 786 787 787
783 786 772 772 788 803 800 792 778 773 766 767 770 775 781 783 788 790 791 788 780 778 793 797 814 820 809 804 802 801 812 826 838 830 848 849 837 793 790 789 788 785 785 784 785
793 791 772 771 796 800 793 785 777 776 773 771 777 774 776 786 794 788 788 786 785 788 792 795 819 836 825 816 802 811 808 822 833 839 840 844 832 793 789 788 786 787 786 787 786
793 792 784 782 793 792 791 788 786 775 774 772 777 775 781 789 796 794 795 791 787 792 793 795 820 821 837 819 815 814 811 811 823 842 834 834 815 798 793 788 788 788 787 788 790
798 802 802 800 796 795 793 793 792 792 781 780 782 784 784 795 799 799 798 795 793 796 798 804 815 815 812 811 810 810 813 814 820 819 825 814 820 801 792 788 788 791 792 791 792
800 802 804 805 803 796 802 797 795 794 792 784 788 791 788 794 794 803 799 801 800 799 804 813 818 815 814 809 812 814 810 810 813 810 815 811 807 789 788 786 786 789 792 794 795
799 800 802 809 804 802 804 797 795 795 788 789 789 792 792 797 794 794 797 801 801 802 811 814 824 831 831 818 816 825 810 803 799 798 799 808 796 786 789 789 789 790 791 793 794
Wind_Speed
14 16 16 18 18 18 18 18 18 18 18 16 15 13 13 14 16 10 6 2 5 11 8 8 6 5 2 1 2 4 4 2 4 4 3 4 3 2 3 1 3 4 7 6 28
16 17 17 19 18 19 19 19 18 17 13 13 12 11 11 13 12 8 2 7 9 9 8 8 6 5 3 1 1 4 4 9 5 4 3 3 2 7 4 5 5 5 7 27 28
17 18 19 20 20 19 18 19 17 12 11 12 9 9 8 9 3 2 2 9 8 8 8 8 11 5 3 1 1 3 5 5 5 5 4 4 4 7 6 6 7 9 18 20 25
18 19 20 20 20 19 19 17 13 8 10 8 8 7 5 3 4 2 4 10 9 8 7 8 4 4 3 2 2 1 6 5 6 5 5 4 4 5 9 7 3 16 22 20 19
19 20 21 21 21 19 18 14 9 8 7 7 6 3 1 1 5 2 7 9 9 8 5 4 4 5 3 4 3 3 4 3 7 9 7 4 10 6 11 3 7 14 18 19 18
21 21 23 22 22 18 15 10 8 7 3 6 3 2 1 1 3 2 8 8 5 7 6 4 5 5 3 2 3 6 4 7 7 6 4 8 4 2 8 8 8 15 18 16 18
21 22 23 23 21 16 12 8 7 3 2 3 2 2 1 6 2 3 7 3 4 7 4 5 4 3 5 1 2 1 5 7 3 1 2 6 1 9 3 7 10 12 13 14 16
22 23 24 23 20 15 11 8 6 0 2 2 3 1 5 2 4 7 8 5 5 9 7 3 2 2 1 0 6 4 5 4 5 7 1 4 8 13 9 11 11 11 13 12 16
23 24 24 23 20 15 11 9 1 2 3 3 2 1 5 4 4 5 10 4 3 3 3 2 3 3 5 4 5 7 0 2 10 3 2 2 7 9 2 11 12 12 14 11 8
24 25 24 22 18 13 7 3 4 3 1 1 1 2 3 3 3 3 6 4 2 3 4 6 5 3 4 4 2 1 2 4 5 4 10 6 6 8 8 8 7 6 10 12 12
26 26 24 22 18 11 1 1 2 3 1 4 3 2 5 8 3 2 4 5 3 7 3 3 5 2 5 6 4 1 2 1 5 4 7 4 12 8 6 6 7 7 8 11 9
28 27 25 22 15 9 5 3 2 1 6 5 4 5 8 3 2 1 6 3 3 0 1 6 1 5 4 3 4 2 1 3 5 2 8 13 13 8 7 1 3 5 9 12 7
29 28 25 23 11 3 2 3 12 3 2 6 5 4 4 8 4 4 6 2 3 1 2 4 5 3 2 2 2 2 3 3 3 4 5 3 8 11 5 4 5 6 10 10 6
29 28 25 20 2 5 1 12 7 3 4 4 2 4 4 3 2 5 6 5 2 2 4 3 4 6 3 1 6 1 6 1 1 2 2 3 2 5 7 10 6 9 8 8 7
29 28 24 17 8 2 4 12 1 2 3 1 2 2 1 5 1 3 3 3 3 1 4 5 5 6 4 2 4 2 4 4 2 4 3 7 5 6 6 7 8 9 13 11 4
29 27 23 8 5 4 10 4 1 5 1 1 4 3 4 1 1 2 3 3 2 3 2 4 3 1 2 3 3 3 4 7 4 3 4 3 4 4 3 4 9 8 12 8 9
30 24 20 8 3 3 7 3 5 4 4 2 3 3 3 2 2 2 4 3 2 3 4 5 4 5 1 5 4 8 7 4 5 5 4 1 2 7 4 6 5 9 10 8 5
29 22 11 11 1 3 2 5 3 3 5 4 2 2 3 3 3 2 4 2 2 5 2 3 6 5 7 2 1 4 4 5 3 2 4 3 2 5 6 5 7 8 6 4 5
26 11 7 4 8 5 5 3 6 5 4 5 3 4 3 3 1 3 2 4 4 5 6 4 3 3 5 4 2 1 4 2 6 3 2 2 5 7 3 6 7 10 8 7 5
20 8 4 2 10 5 4 4 3 4 4 1 2 1 2 5 3 3 0 2 2 1 3 3 1 2 3 1 6 5 2 3 4 2 2 4 4 5 5 8 5 7 6 7 7
6 2 7 7 1 5 3 5 4 6 3 1 3 3 2 2 1 2 2 2 3 3 4 3 3 5 2 5 2 4 3 6 4 3 5 2 5 5 6 7 7 7 3 3 5
5 2 8 5 3 2 2 4 4 4 2 1 3 3 2 1 3 3 1 3 7 1 3 2 5 1 0 6 3 2 3 3 4 2 2 3 6 4 5 5 6 7 5 2 3
2 3 4 1 2 1 4 4 2 4 3 2 2 1 1 3 3 2 3 3 8 5 3 4 2 3 6 5 2 5 2 4 4 2 4 5 5 2 2 3 6 7 4 2 5
2 3 4 4 2 4 1 2 4 3 1 2 2 3 3 3 6 3 2 5 4 4 9 5 3 6 6 5 3 2 2 2 4 3 3 6 5 10 4 5 6 6 5 5 6
3 0 2 1 3 2 2 3 3 6 5 6 4 3 3 3 2 2 2 3 5 8 4 4 3 2 3 4 3 4 5 5 6 6 5 7 8 11 7 6 7 3 3 5 5
2 2 3 1 2 1 3 1 2 5 5 4 4 1 3 5 4 7 4 1 1 5 3 3 1 1 3 2 5 4 7 7 7 6 7 8 11 6 5 3 6 7 6 5 4
2 2 3 3 2 2 1 2 1 1 1 3 3 3 3 4 4 3 3 3 1 2 2 2 5 3 4 1 2 4 9 9 5 4 5 6 8 2 1 4 4 6 6 6 3
Wind_Direction
347 343 341 337 334 330 328 323 322 322 319 316 315 314 309 307 310 300 249 231 164 172 151 113 101 99 109 79 111 129 67 149 216 165 208 273 118 36 271 210 153 188 154 175 151
345 345 343 337 334 331 327 323 322 322 324 323 326 320 315 318 313 264 11 161 135 137 157 129 112 114 48 18 7 93 115 207 217 191 175 286 165 180 225 213 224 144 99 136 145
348 345 342 338 334 330 326 323 321 324 325 324 326 317 318 329 294 281 27 155 165 137 121 128 115 108 79 8 198 167 176 208 255 199 169 240 273 193 215 262 216 171 148 154 156
349 342 341 339 335 331 326 324 320 324 326 329 332 321 321 327 126 27 129 156 147 149 138 123 73 82 107 164 209 319 243 201 264 186 151 207 166 212 203 231 183 157 161 160 171
343 344 342 340 335 332 328 324 320 322 321 324 331 318 5 283 253 7 149 153 150 156 154 133 122 136 133 181 172 193 270 234 260 272 224 208 210 206 223 234 140 138 162 177 174
345 345 342 340 335 335 330 329 322 325 324 324 340 103 285 122 329 257 167 157 166 156 169 149 169 189 142 209 154 204 240 273 279 264 202 179 245 147 243 156 148 157 180 179 185
347 343 342 339 338 337 333 330 330 338 339 338 107 46 80 221 53 157 179 183 198 192 158 217 190 132 137 234 238 278 315 323 245 309 274 158 56 226 194 156 158 183 182 185 191
347 343 343 339 338 341 331 324 326 4 56 85 88 345 244 200 292 248 209 241 222 222 240 272 232 99 146 168 15 46 50 17 283 354 195 134 262 252 191 155 189 190 198 185 202
347 345 343 341 339 340 334 321 254 147 90 102 40 17 284 290 266 247 209 217 162 249 244 208 86 84 30 76 12 7 132 320 322 233 304 267 293 330 360 191 178 197 209 203 208
350 346 344 342 337 338 354 73 113 104 109 336 305 348 316 300 276 198 186 215 3 7 31 45 48 62 37 71 152 111 360 309 259 319 46 344 345 334 21 31 350 320 251 223 220
349 348 345 344 338 331 354 173 354 16 181 226 219 244 280 320 302 141 160 114 71 52 42 359 56 264 230 192 167 166 161 278 253 310 72 327 32 353 39 35 9 346 298 269 285
348 348 347 343 340 339 46 53 35 215 313 239 255 268 268 251 333 317 156 107 81 89 346 16 280 232 233 131 172 187 9 310 298 193 94 45 23 349 41 310 297 281 273 273 258
346 347 346 344 338 10 311 57 342 123 82 295 197 195 217 153 215 248 129 126 153 241 203 153 252 311 141 151 142 162 197 197 211 353 53 42 9 350 338 347 306 297 255 250 232
344 344 345 344 23 337 269 347 350 141 55 280 259 276 132 150 289 198 169 134 51 240 176 233 287 336 40 76 136 96 188 174 27 78 102 19 205 322 327 319 324 317 300 272 230
340 341 339 332 299 267 329 339 38 85 67 232 179 145 128 140 356 10 186 65 169 263 80 272 315 5 8 11 173 205 140 112 115 94 71 6 84 263 10 315 318 325 341 354 157
337 338 331 317 276 255 329 351 86 46 253 334 140 155 115 4 7 125 136 66 129 113 11 260 296 344 278 334 43 80 87 46 54 81 47 306 116 287 259 263 302 320 354 357 99
334 330 315 277 250 315 337 51 47 118 342 327 238 159 139 195 268 154 144 122 133 47 3 342 330 323 20 30 13 51 56 4 10 16 219 214 45 240 268 286 281 311 331 355 101
333 324 300 265 253 312 48 51 103 277 270 306 10 99 152 151 269 158 114 165 151 106 97 100 343 10 332 48 226 37 130 146 181 208 260 335 252 273 231 264 315 312 304 54 66
333 326 307 327 210 218 75 83 201 205 264 318 357 90 31 15 198 110 110 182 193 173 170 140 279 324 50 22 55 43 46 165 103 10 64 274 293 313 260 280 307 300 326 14 53
331 328 348 52 127 92 80 218 226 219 314 335 118 69 113 346 62 78 154 326 134 68 143 206 57 20 308 18 25 88 113 39 5 134 274 300 285 237 259 253 264 279 312 7 5
338 37 15 159 64 53 149 228 267 253 238 233 164 92 97 110 84 55 359 17 10 64 88 117 98 287 51 34 301 350 25 53 114 108 162 222 267 215 231 234 224 240 304 352 9
357 58 9 162 58 45 157 206 261 288 305 302 88 96 130 102 76 98 126 14 339 20 65 34 128 103 237 293 238 66 111 109 113 244 105 152 275 307 271 226 202 246 215 260 63
38 266 7 115 136 268 281 281 274 327 324 19 116 112 95 107 105 77 77 17 17 57 134 182 38 40 354 357 7 71 52 114 107 84 204 140 261 273 66 264 283 233 200 107 55
58 14 333 47 41 131 72 334 312 308 166 37 113 76 91 77 20 123 66 9 17 67 47 77 114 158 191 207 155 211 211 110 120 123 217 218 270 294 276 273 273 214 171 124 74
34 219 176 329 11 43 45 8 343 354 1 26 46 47 139 110 56 86 59 16 33 356 42 83 196 191 260 225 194 214 226 197 193 211 184 251 205 252 262 250 234 179 134 104 67
96 91 10 48 321 345 357 43 61 326 16 339 114 80 41 142 178 193 140 171 225 9 67 17 228 108 303 258 231 255 268 254 225 243 242 260 273 265 280 200 151 146 133 100 75
106 100 108 332 6 94 297 339 65 322 175 17 141 98 84 170 136 115 96 118 98 142 124 99 132 108 249 356 330 294 231 228 219 191 192 231 240 318 28 89 109 136 136 121 105